Meteo Giornale » Osservazioni meteo Svezia » Lycksele
ore: 19:20 - Osservazioni Meteo Lycksele
Lat. 64° 32' N Lon. 18° 43' E Alt. 211 metri s.l.m.
14 °C
Nuvoloso
Temp. 24 Ore
12 °C
17 °C
Ovest
11.1 Km/h
Dew point 9 °C
Umidità 71 %
Visibilità 10 Km
Il sole sorge alle ore 05:26
Il sole tramonta alle ore 20:03
| Data e Ora | Cielo e Fenomeni | T °C | DP °C | Um. % | Pres. hPa | Vis. km | Vento km/h | |
|---|---|---|---|---|---|---|---|---|
| Oggi h: 19:20 | Nuvoloso | 14 | 9 | 71 | 1005 | 10 | O 11.1 | |
| Oggi h: 18:50 | Coperto | 15 | 8 | 62 | 1005 | 10 | O 9.3 | |
| Oggi h: 18:20 | Molto Nuvoloso | 15 | 8 | 62 | 1004 | 10 | O 13 | |
| Oggi h: 17:50 | Coperto | 16 | 8 | 58 | 1004 | 10 | O 13 | |
| Oggi h: 17:20 | Coperto | 16 | 9 | 63 | 1004 | 10 | O 13 | |
| Oggi h: 16:50 | Coperto | 16 | 9 | 63 | 1004 | 10 | O 13 | |
| Oggi h: 16:20 | Molto Nuvoloso | 16 | 9 | 63 | 1004 | 10 | O 14.8 | |
| Oggi h: 15:20 | Molto Nuvoloso | 16 | 10 | 67 | 1004 | 10 | O 16.7 | |
| Oggi h: 14:50 | Molto Nuvoloso | 16 | 10 | 67 | 1004 | 10 | O/NO 18.5 | |
| Oggi h: 14:20 | Molto Nuvoloso | 16 | 11 | 72 | 1004 | 10 | O/NO 18.5 | |
| Oggi h: 13:50 | Molto Nuvoloso | 16 | 10 | 67 | 1004 | 10 | O/NO 20.3 | |
| Oggi h: 13:20 | Molto Nuvoloso | 17 | 11 | 67 | 1003 | 10 | NO 20.3 | |
| Oggi h: 12:50 | Molto Nuvoloso | 15 | 11 | 76 | 1003 | 10 | O/NO 16.7 | |
| Oggi h: 12:20 | Coperto | 14 | 11 | 82 | 1003 | 10 | O 13 | |
| Oggi h: 11:50 | Coperto | 14 | 12 | 87 | 1003 | 10 | N 3.7 | |
| Oggi h: 11:20 | Molto Nuvoloso | 13 | 12 | 93 | 1003 | 10 | N 3.7 | |
| Oggi h: 10:50 | Pioggia | 12 | 11 | 93 | 1003 | 4 | O 11.1 | |
| Oggi h: 10:20 | Pioviggine | 12 | 11 | 93 | 1003 | 5 | O 11.1 | |
| Oggi h: 09:50 | Coperto | 13 | 11 | 87 | 1003 | 10 | O 13 | |
| Oggi h: 09:20 | Coperto | 13 | 11 | 87 | 1002 | 10 | O 11.1 | |
| Oggi h: 08:50 | Coperto | 13 | 11 | 87 | 1002 | 10 | N 5.5 | |
| Oggi h: 08:20 | Coperto | 13 | 11 | 87 | 1002 | 10 | N 5.5 | |
| Oggi h: 07:50 | Molto Nuvoloso | 13 | 11 | 87 | 1002 | 10 | N 5.5 | |
| Oggi h: 07:20 | Coperto | 13 | 11 | 87 | 1002 | 10 | N 3.7 | |
| Oggi h: 06:50 | Coperto | 13 | 11 | 87 | 1002 | 10 | N 3.7 | |
| Oggi h: 06:20 | Coperto | 13 | 12 | 93 | 1002 | 10 | N 5.5 | |
| Oggi h: 05:50 | Coperto | 13 | 12 | 93 | 1002 | 10 | N 3.7 | |
| Oggi h: 05:20 | Coperto | 13 | 12 | 93 | 1002 | 10 | S 7.4 | |
| Oggi h: 04:50 | Coperto | 13 | 12 | 93 | 1002 | 10 | S 7.4 | |
| Oggi h: 04:20 | Pioviggine | 13 | 12 | 93 | 1002 | 10 | N 5.5 | |
| Oggi h: 03:50 | Coperto | 13 | 12 | 93 | 1002 | 10 | N 5.5 | |
| Oggi h: 03:20 | Nuvoloso | 13 | 12 | 93 | 1002 | 10 | S 11.1 | |
| Oggi h: 02:50 | Molto Nuvoloso | 13 | 12 | 93 | 1002 | 10 | S 9.3 | |
| Oggi h: 02:20 | Coperto | 14 | 13 | 93 | 1002 | 10 | N 3.7 | |
| Oggi h: 01:50 | Coperto | 14 | 13 | 93 | 1002 | 10 | SE 7.4 | |
| Oggi h: 01:20 | Molto Nuvoloso | 14 | 14 | 100 | 1002 | 10 | E/SE 7.4 | |
| Oggi h: 00:50 | Pioviggine | 14 | 14 | 100 | 1002 | 10 | E/SE 9.3 | |
| Oggi h: 00:20 | Pioviggine | 14 | 14 | 100 | 1002 | 10 | E/SE 9.3 | |
| Ieri h: 23:50 | Coperto | 14 | 14 | 100 | 1002 | 10 | E/SE 9.3 | |
| Ieri h: 23:20 | Molto Nuvoloso | 14 | 14 | 100 | 1002 | 10 | SE 9.3 | |
| Ieri h: 22:50 | Pioggia | 14 | 14 | 100 | 1002 | 10 | N 5.5 | |
| Ieri h: 22:20 | Molto Nuvoloso | 14 | 14 | 100 | 1003 | 10 | SE 7.4 | |
| Ieri h: 21:50 | Molto Nuvoloso | 14 | 14 | 100 | 1003 | 10 | N 5.5 | |
| Ieri h: 21:20 | Pioggia | 15 | 14 | 93 | 1003 | 3 | E/SE 9.3 | |
| Ieri h: 20:50 | Pioggia | 14 | 14 | 100 | 1003 | 4 | SE 7.4 | |
| Ieri h: 20:20 | Pioggia | 15 | 14 | 93 | 1003 | 10 | E/SE 7.4 | |
| Ieri h: 19:50 | Pioviggine | 14 | 14 | 100 | 1003 | 10 | N 3.7 | |



